星链-5297 (STARLINK-5297 )

导读

STARLINK-5297是美国SpaceX星链星座的V1.5批次卫星,于2022年10月28日发射入轨。它运行在近地轨道,配备相控阵天线与氪离子推进系统,属于星链全球宽带互联网星座的组成部分,主要为偏远、基础设施匮乏地区提供高速低延迟宽带服务,可支持海事、航空、应急通信等多场景应用,退役后会主动降轨在大气层中烧毁,减少空间碎片影响。

Basic Information
目录编号:
54158
目录名称:
STARLINK-5297
国际标识:
2022-141B
轨道中心:
EARTH
卫星名称:
星链-5297
卫星全名:
星链-5297 (STARLINK-5297 )
卫星状态:
在轨 (已飞行1415 天)
发射日期:
2022-10-28 UTC
国别 :
美国 (US)
星等 :
--
This satellite is enrolled in the Space Conjunction Data Service (SCDS) and the current flight risk assessment level is: No High Risk
Orbit Information
数据来源 国际轨道数据
星历时间: 2026-09-12T16:00:02+0800
6小时前
查看轨道信息
半长轴: 6875km
偏心率: 0.00022
轨道倾角: 53.160°
近地点辐角 79.686°
升交点赤经 255.288°
平近点角 116.284°
近地点: 495.35km
远地点: 498.376km
周期: 94.552分钟
每日圈数: 15.229785
Detailed Information
固有亮度:
5
最大亮度:
2.5
卫星平台:
Starlink v1.5
覆盖范围:
全球
运营商:
太空探索技术公司
运营商所在国:
美国
制造商(研发单位):
太空探索技术公司
制造商所在国:
美国
使用方式:
暂无
Satellite Introduction
星链(Starlink)计划是由太空探索技术公司(SpaceX)提出的一个巨型低轨卫星互联网星座项目,计划在2019年至2024年间在太空搭建由约1.2万颗卫星组成的“星链”网络,其中1584颗将部署在地球上空550千米处的近地轨道,并从2020年开始工作。该卫星仍在工作。
2D Orbit Map
3D Orbit Map
Orbit Altitude Analysis Chart
Orbit Inclination Analysis Chart
Orbit Comprehensive Analysis Chart
View Comprehensive Chart
Conjunction Data List
Event ID Objects TCA Miss Dist (km) Collision Risk Probability Collision Risk Index (CRI) Action
CDM_260914-105705-415806-629421
SEMI-1L (66294)
2026-09-14T
10:57:10+0000
0.779 km
远距离
4.669414E-5 中风险 0.68
CDM_260912-174203-636505-415821
2026-09-12T
17:42:51+0000
2.014 km
极远距离
2.232798E-6 低风险 0.42
CDM_260913-185505-415806-729421
2026-09-13T
18:55:52+0000
2.605 km
极远距离
1.344822E-6 低风险 0.38
CDM_260912-201505-415805-913521
2026-09-12T
20:15:55+0000
2.920 km
极远距离
1.340614E-6 低风险 0.38
CDM_260913-050305-415805-788621
2026-09-13T
05:03:07+0000
2.612 km
极远距离
1.223082E-6 低风险 0.37
Miss Distance Evolution Trend with All Objects
Collision Probability Evolution Trend with All Objects